Regional Weather Roundup
Issued by NWS New Orleans/Baton Rouge, LA

Home | Current Version | Previous Version | Graphics & Text | Print | Product List | Glossary On
Versions: 1 2 3 4 5 6 7 8 9 10 11 12 13 14 15 16 17 18 19 20 21 22 23 24 25 26 27 28 29 30 31 32 33 34 35 36 37 38 39 40 41 42 43 44 45 46 47 48 49 50
482
ASUS44 KLIX 250110
RWRLIX
NEW ORLEANS REGIONAL WEATHER ROUNDUP
NATIONAL WEATHER SERVICE NEW ORLEANS LA
800 PM CDT THU JUL 24 2014

NOTE: "FAIR" INDICATES FEW OR NO CLOUDS BELOW 12,000 FEET WITH NO
      SIGNIFICANT WEATHER AND/OR OBSTRUCTIONS TO VISIBILITY.
      SKY/WX - SKY CONDITION AND SIGNIFICANT WEATHER.
      TMP - AIR TEMPERATURE.     DP    - DEWPOINT TEMPERATURE.
      RH  - RELATIVE HUMIDITY.   PRES  - PRESSURE.
      HI  - HEAT INDEX.          WCI   - WIND CHILL INDEX.

*  THESE STATIONS ARE NOT NWS OR FAA STATIONS AND ARE NOT UNDER
   NWS QUALITY CONTROL.

LAZ038-040-048-061>063-065>067-069-250200-
SOUTHEAST LOUISIANA

CITY           SKY/WX    TMP DP  RH WIND       PRES   REMARKS
N.O. AUDUBON     N/A     84  76  76 MISG        N/A
N.O. INTL ARPT PTCLDY    83  75  77 S7        29.94R
N.O. LAKEFRONT CLEAR     86  68  54 CALM      29.95R
N.O. DOWNTOWN*   N/A     86  70  58 S3        29.95R
SLIDELL        CLEAR     82  76  81 CALM      29.94R
BATON ROUGE    PTCLDY    80  72  76 CALM      29.94S
BOOTHVILLE     PTCLDY    82  75  79 SW8       29.96R
BELLE CHASSE   MOCLDY    81  74  79 SW3       29.94R
BOGALUSA*        N/A     84  74  72 CALM      29.95R
GALLIANO*      NOT AVBL
NEW ROADS*       N/A     85  75  73 CALM      29.94R
GONZALES*        N/A     82  78  87 SW3       29.94R
HAMMOND*       CLOUDY    86  72  62 CALM      29.96R
HOUMA*         PTCLDY    77  70  79 SW5       29.95R
PORT FOURCHON* CLOUDY    84  77  79 W7        29.98R

$$

MSZ070-080>082-250200-
SOUTHERN MISSISSIPPI

CITY           SKY/WX    TMP DP  RH WIND       PRES   REMARKS
MCCOMB         CLOUDY    81  73  76 NW5       29.96R
GULFPORT       PTCLDY    85  74  69 S5        29.94R
BILOXI         CLEAR     81  73  75 S5        29.95R
PASCAGOULA     CLEAR     81  73  76 CALM      29.96R
STENNIS ARPT*  CLEAR    N/A N/A N/A CALM      29.95R

$$

COASTAL OBSERVATIONS
LAKE AND NEARSHORE STATIONS

STATION/POSITION TIME  TEMP    WIND        PRES    WAVE
                       AIR SEA DIR/SP/G            HT/PER
                 (UTC) (F)     (DEG/KT/KT) (MB)    (FT/S)
PASCAGOULA       0100   83     190/  7/  9 1014.0
WAVELAND YACHT   0100   83     210/  2/  4 1013.4
GRAND ISLE       0100   80 85  240/  3/  6 1015.0
SOUTHWEST PASS   0100   84 85  250/ 12/ 15 1015.1
NEW CANAL        0100   87 85  180/  1/  2 1014.1
SHELL BEACH      0100   84 81  120/  1/  2 1014.0

OFFSHORE STATIONS

STATION/POSITION TIME  TEMP    WIND        PRES    WAVE
                       AIR SEA DIR/SP/G            HT/PER
                 (UTC) (F)     (DEG/KT/KT) (MB)    (FT/S)
64 S DAUPHIN ISL 0017   84 87  220/ 10/ 12 1015.0

$$




USA.gov is the U.S. government's official web portal to all federal, state and local government web resources and services.